Regional Weather Roundup
Issued by NWS

Home | Current Version | Previous Version | Text Only | Print | Product List | Glossary Off
Versions: 1 2 3 4 5 6 7 8 9 10 11 12 13 14 15 16 17 18 19 20 21 22 23 24 25 26 27 28 29 30 31 32 33 34 35 36 37 38 39 40 41 42 43 44 45 46 47 48 49 50

000
ASUS43 KBIS 021010
RWRND

NORTH DAKOTA REGIONAL WEATHER ROUNDUP
NATIONAL WEATHER SERVICE BISMARCK ND
500 AM CDT SUN AUG 02 2015

NOTE: "FAIR" INDICATES FEW OR NO CLOUDS BELOW 12,000 FEET WITH NO
SIGNIFICANT WEATHER AND/OR OBSTRUCTIONS TO VISIBILITY.


NDZ001>003-009>011-017-021100-
NORTHWEST NORTH DAKOTA

CITY           SKY/WX    TMP DP  RH WIND       PRES   REMARKS
WILLISTON      CLEAR     55  51  86 CALM      29.93R
MINOT          CLEAR     59  55  87 NW10      29.84R
MINOT AFB      CLEAR     60  58  96 NW9       29.84R
$$

NDZ018>021-031>035-040>046-021100-
SOUTHWEST NORTH DAKOTA

CITY           SKY/WX    TMP DP  RH WIND       PRES   REMARKS
BISMARCK       CLEAR     65  53  65 VRB3      29.82R
DICKINSON      CLEAR     55  50  83 NW6       29.90R
GARRISON         N/A     58  55  90 N7        29.85R
HETTINGER ARPT CLEAR     60  52  74 N5        29.91R
$$

NDZ004>008-012>016-024-026-027-054-021100-
NORTHEAST NORTH DAKOTA

CITY           SKY/WX    TMP DP  RH WIND       PRES   REMARKS
GRAND FORKS    LGT RAIN  64  60  87 W3        29.65R
GRND FRKS AFB  LGT RAIN  63  61  94 N5        29.68R
DEVILS LAKE    PTCLDY    61  52  72 NW9       29.74R
$$

NDZ022-023-025-028>030-036>039-047>053-021100-
SOUTHEAST NORTH DAKOTA

CITY           SKY/WX    TMP DP  RH WIND       PRES   REMARKS
FARGO          CLEAR     67  64  90 NE6       29.61F
JAMESTOWN      CLEAR     64  60  87 N14       29.70R
$$




USA.gov is the U.S. government's official web portal to all federal, state and local government web resources and services.